Location: Newark
(42.7133°N, 87.7910°W)
Time: 01:29:17
(UTC+00:00)

Courier 1B - Visible Passes

Search period start: 24 October 2019 00:00
Search period end: 03 November 2019 00:00
Orbit: 962 x 1209 km, 28.3° (Epoch: 23 October)

Date Brightness Start Highest point End Pass type
(mag) Time Alt. Az. Time Alt. Az. Time Alt. Az.
24 Oct 9.2 00:17:10 10° SW 00:23:33 28° S 00:28:43 14° SE visible
24 Oct 9.6 02:11:16 10° WSW 02:15:36 21° SSW 02:15:36 21° SSW visible
24 Oct 9.4 23:23:31 10° SW 23:29:50 27° S 23:36:10 10° ESE visible
25 Oct 9.3 01:17:12 10° WSW 01:23:10 24° SSW 01:25:11 22° S visible
26 Oct 9.4 00:23:16 10° WSW 00:29:28 26° S 00:34:49 13° SE visible
26 Oct 9.8 02:18:15 10° WSW 02:21:43 16° SSW 02:21:43 16° SSW visible
26 Oct 9.4 23:29:29 10° WSW 23:35:45 27° S 23:42:06 10° SE visible
27 Oct 9.6 01:23:49 10° WSW 01:29:01 19° SSW 01:31:23 17° S visible
28 Oct 9.6 00:29:41 10° WSW 00:35:22 22° SSW 00:41:04 10° SSE visible
28 Oct 10.2 02:27:31 10° SW 02:28:01 10° SSW 02:28:01 10° SSW visible
28 Oct 9.6 23:35:44 10° WSW 23:41:40 24° S 23:47:42 10° SE visible
29 Oct 10.0 01:31:17 10° SW 01:34:49 14° SSW 01:37:49 11° S visible
30 Oct 10.0 00:36:37 10° WSW 00:41:12 17° SSW 00:45:50 10° SSE visible
30 Oct 9.9 23:42:22 10° WSW 23:47:34 20° SSW 23:52:50 10° SSE visible
01 Nov 10.3 00:45:12 10° SW 00:46:59 11° SSW 00:48:48 10° SSW visible
01 Nov 10.2 23:49:47 10° SW 23:53:24 14° SSW 23:57:03 10° S visible
